Lid_Strength_Index
1 -1 -1 -1 -1 -1 -1 -1 -1 -1 -1 -2 -2 -2 -1 -1 -2 -2 -2 -2 -2 -2 -2 -2 -2 -2 -2 -2 -2 -2 -2 -2 -2 -2 -2 -2 -2 -2 -2 -2 -2 -1 -2
3 -1 -1 -1 -1 -1 -1 -1 -1 -1 -1 -2 -2 -1 -1 -1 -2 -2 -2 -2 -2 -2 -2 -2 -2 -2 -2 -2 -2 -1 -1 -1 -2 -2 -2 -2 -2 -2 -2 -2 -2 -1 -2
2 -1 -1 -2 -1 -1 -1 -1 -1 -1 -1 -1 -2 -1 -1 -1 -1 -1 -2 -2 -2 -2 -2 -2 -2 -2 -2 -2 -2 -1 -1 -1 -1 -2 -2 -1 -1 -2 -2 -1 -2 -2 -2
-0 -1 -1 -1 -1 -1 -1 -1 -1 -1 -1 -1 -1 -2 -1 -2 -1 -2 -2 -2 -2 -2 -2 -2 -2 -2 -2 -2 -2 -1 -1 -1 -1 -2 -1 -1 -1 -2 -2 -2 -2 -2 -2
-0 -1 -1 -1 -1 -1 -1 -1 -1 -1 -1 -1 -2 -1 -2 -2 -2 -2 -2 -2 -2 -2 -2 -2 -2 -2 -2 -2 -2 -2 -1 -1 -1 -1 -1 -1 -2 -1 -2 -2 -2 -2 -2
-0 -1 -1 -1 -1 -1 -1 -1 -1 -1 -1 -1 -1 -2 -2 -2 -2 -2 -2 -2 -2 -2 -2 -2 -2 -2 -2 -2 -2 -1 -1 -1 -1 -1 -1 -1 -1 -2 -2 -2 -2 -2 -2
1 -0 -0 -1 -1 -2 -1 -1 -2 -1 -1 -2 -1 -1 -2 -1 -2 -2 -2 -2 -2 -2 -2 -1 -1 -2 -2 -2 -2 -1 -1 -1 -1 -1 -1 -1 -1 -2 -2 -2 -2 -2 -2
2 1 -0 -1 -1 -1 -1 -1 -2 -2 -2 -2 -2 -1 -2 -2 -2 -2 -2 -2 -2 -2 -2 -1 -2 -2 -2 -2 -1 -1 -1 -0 -1 -1 -0 -1 -2 -2 -2 -2 -2 -2 -2
2 2 2 1 -1 -1 -1 -1 -1 -2 -2 -2 -2 -2 -1 -1 -1 -2 -2 -2 -2 -2 -2 -2 -2 -2 -2 -2 -1 -2 -1 0 -1 -1 -1 -1 -2 -2 -2 -2 -2 -2 -2
3 1 1 1 -0 -1 -1 -1 -1 -1 -1 -1 -1 -1 -1 -0 -0 -1 -1 -1 -2 -2 -2 -2 -2 -2 -2 -1 -1 -1 -1 0 -1 -0 -1 -1 -2 -2 -2 -2 -2 -2 -2
3 2 1 -0 0 -0 -1 -1 -1 -0 -0 -0 -1 0 -0 -1 -1 -1 -0 -0 -1 -1 -2 -2 -2 -2 -1 -1 -1 -1 -0 -1 -1 -1 -1 -2 -2 -2 -2 -2 -2 -2 -2
4 3 2 1 -0 -0 -0 -1 -1 -1 -1 -1 -1 -1 -1 -1 -1 -1 0 1 -1 -1 -1 -2 -2 -1 -1 -1 -1 -0 -1 -1 -1 -1 -1 -2 -2 -2 -2 -2 -2 -2 -2
4 3 3 2 1 -0 -0 -1 -1 -1 -1 -1 -1 -1 -1 -1 -1 -1 -1 -1 -1 0 -1 -1 -1 -1 -1 -1 -1 -1 -1 -1 -1 -1 -1 -2 -2 -2 -2 -2 -2 -2 -2
4 3 3 3 2 1 -0 -0 -1 -1 -1 -1 -1 -0 -1 -1 -1 -1 -1 -1 -1 -1 -1 -0 -0 -1 -1 -1 -1 -1 -1 -1 -1 -1 -1 -1 -2 -2 -2 -2 -2 -2 -2
5 3 3 3 2 2 1 0 0 -0 -1 -1 -1 -1 0 -0 -0 -0 -1 -1 -1 -1 0 1 -0 -0 -0 -0 -1 -0 -0 -0 -1 -1 -1 -1 -1 -2 -2 -2 -2 -2 -2
4 3 3 3 2 2 1 1 1 0 -1 -1 -1 -1 -1 -1 -0 0 0 -0 -1 -0 1 1 1 0 0 0 -0 0 0 -0 -0 -0 -0 -1 -1 -1 -2 -2 -2 -2 -2
4 4 3 3 2 2 1 1 1 0 -1 -1 -1 -1 -1 0 0 0 0 0 0 -0 1 2 1 1 1 1 0 0 1 0 0 -1 0 -1 -1 -0 -1 -2 -2 -2 -2
3 3 3 3 2 1 1 1 1 1 -0 -0 -1 -1 -1 0 0 1 1 1 0 -0 1 2 2 2 2 2 1 0 1 1 0 -0 -1 -1 -1 -1 -1 -2 -2 -2 -2
3 2 2 2 2 1 1 1 1 1 1 1 1 1 -0 -0 0 0 1 1 1 1 2 2 2 2 3 3 2 1 1 1 1 1 -0 -1 -1 0 -1 -1 -1 -1 -2
3 3 2 2 1 1 1 1 2 2 2 2 2 1 1 0 1 1 1 0 0 1 2 2 2 3 3 4 3 2 2 1 2 1 -0 1 -0 -0 1 -0 -0 0 -0
3 3 2 2 1 2 2 2 2 3 2 2 1 1 1 1 1 0 -0 -0 -0 1 1 1 2 3 3 3 5 6 5 2 2 2 2 1 1 1 1 1 1 1 0
3 3 3 2 2 2 1 1 1 1 1 1 1 1 1 2 1 1 0 -0 -0 0 1 1 2 5 5 4 4 7 8 5 4 3 3 3 2 1 2 3 2 2 1
4 3 2 2 2 1 1 1 2 2 2 3 2 2 2 2 2 1 0 -0 0 0 1 1 2 3 5 3 3 5 9 8 6 5 3 3 3 2 2 3 2 2 2
3 2 2 2 2 1 1 2 2 2 3 2 2 2 2 2 1 1 0 -0 -0 -0 1 1 1 2 3 4 4 5 5 7 6 7 6 4 3 3 2 4 3 2 2
3 2 2 2 2 1 1 1 2 2 2 2 2 2 2 2 1 1 1 1 0 0 0 0 1 1 2 3 4 8 8 6 6 6 7 7 6 4 4 3 3 2 3
2 3 2 2 2 2 2 1 2 2 2 2 3 3 3 2 2 1 1 1 0 0 0 0 0 1 1 2 4 6 7 7 7 7 5 5 5 5 5 5 4 3 3